www.pogodaiklimat.ru

Погода и климат >> Архив погоды >> Малайзия >> Тавау


ПОГОДА в Тавау

  • Прогноз погоды в Тавау
  • Монитор погоды в Тавау

АРХИВ ПОГОДЫ в Тавау

Время (UTC), дата Ветер
(напр.,м/с)
 
Видим.   Явления Облачность Т
(С)
Тd
(С)
f
(%)
Тe
(С)
Тes
(С)
Комфортность P
(гПа)
Po
(гПа)
Тmin
(С)
Tmax
(С)
R
(мм)
R24
(мм)
S
(см)
00 14.06 С 1 10 км осадки на расстоянии 9/4 50 м
[Cu Sc Ac lent Ci fib]
+28.1 +25.6 86 +41 +43 опасность
перегрева
1010.4 1008.5 +24.9
03 14.06 З 1 10 км слаб. дождь 9/5 480 м
[Cb cap Ac lent Cs]
+28.1 +26.7 92 +44 +50 опасность
перегрева
1010.9 1009.0
06 14.06 В 2 10 км слаб. дождь 9/5 480 м
[Cb cap Ac lent Cs]
+28.2 +26.2 89 +43 +48 опасность
перегрева
1008.8 1006.9 6
09 14.06 В 2 12 км в посл. час дождь 9/4 480 м
[Cu Sc Ac und]
+27.2 +25.5 90 +40 +40 очень
душно
1008.0 1006.1
12 14.06 СЗ 1 12 км 9/3 500 м
[Cu Sc Ac As]
+25.8 +25.0 95 +37 +37 очень
душно
1009.0 1007.1 +29.3 0.2
15 14.06 штиль 0 12 км 9/4 500 м
[Cu Sc Ac As]
+25.2 +24.6 96 +35 +35 очень
душно
1010.8 1008.9
18 14.06 штиль 0 12 км 9/4 500 м
[Cu Sc Ac lent Cs]
+25.0 +24.5 97 +35 +35 очень
душно
1009.7 1007.8
21 14.06 штиль 0 12 км 8/4 500 м
[Cu Sc Ac lent Ci sp]
+24.7 +24.2 97 +34 +34 очень
душно
1009.3 1007.4
00 15.06 С 1 14 км 9/3 480 м
[Cb cap Ac lent Ci fib]
+27.0 +25.6 92 +40 +42 очень
душно
1010.8 1008.9 +24.5 6
03 15.06 Ю 3 12 км 9/5 500 м
[Cu Sc Ac lent Ci fib]
+30.2 +25.9 78 +45 +50 опасность
перегрева
1010.2 1008.3
06 15.06 ЮВ 4 12 км 9/3 500 м
[Cu Sc Ac As]
+30.0 +25.5 77 +44 +47 опасность
перегрева
1007.8 1005.9
09 15.06 ЮВ 3 12 км 9/4 500 м
[Cu Sc Ac lent Ci sp]
+29.6 +25.8 80 +44 +45 опасность
перегрева
1006.9 1005.0
12 15.06 ЮВ 2 12 км 9/5 500 м
[Cu Sc Ac lent Ci sp]
+28.9 +25.6 82 +43 +43 опасность
перегрева
1009.1 1007.2 +32.0
15 15.06 Ю 3 12 км 9/5 500 м
[Cu Sc Ac lent Ci sp]
+28.8 +25.9 84 +43 +43 опасность
перегрева
1010.5 1008.6
18 15.06 штиль 0 6000 м гроза, ливневой дождь 9/5 450 м
[Cb cap Ac lent Cs]
+23.8 +23.5 98 +32 +32 очень
душно
1010.1 1008.2 43
21 15.06 З 1 4000 м слаб. дождь {гроза} 9/6 450 м
[Cu Sc Ac As]
+24.0 +23.6 98 +33 +33 очень
душно
1010.9 1009.0
00 16.06 З 2 10 км слаб. дождь 9/4 500 м
[Cu Sc Ac As]
+24.3 +23.9 98 +33 +35 очень
душно
1012.1 1010.2 +23.8 57
03 16.06 З 2 12 км 9/4 300 м
[Frnb Ac lent Ci sp]
+28.4 +23.9 77 +39 +46 очень
душно
1011.0 1009.1
06 16.06 Ю 3 12 км 9/3 500 м
[Cu Sc Ac lent Ci sp]
+29.6 +25.0 76 +42 +48 опасность
перегрева
1009.1 1007.2 0.0
09 16.06 Ю 2 12 км 8/3 500 м
[Cu Sc Ac lent Ci fib]
+29.2 +25.0 78 +42 +43 опасность
перегрева
1007.8 1005.9
12 16.06 штиль 0 12 км 8/1 500 м
[Cu Sc Ac lent Ci fib]
+26.9 +25.2 90 +39 +39 очень
душно
1010.0 1008.1 +30.8
15 16.06 СЗ 2 12 км 9/3 500 м
[Cu Sc Ac As]
+25.8 +24.9 95 +37 +37 очень
душно
1011.5 1009.6
18 16.06 СВ 2 12 км 9/3 500 м
[Cu Sc Ac lent Ci sp]
+25.3 +24.7 96 +36 +36 очень
душно
1010.3 1008.4
21 16.06 штиль 0 8000 м слаб. дождь 9/4 500 м
[Cu Sc Ac As]
+25.2 +24.6 96 +35 +35 очень
душно
1010.1 1008.2
00 17.06 штиль 0 10 км слаб. дождь 9/4 300 м
[Cu Sc Ac As]
+24.9 +24.5 98 +35 +36 очень
душно
1010.9 1009.0 +24.3 2
03 17.06 Ю 1 12 км 9/6 500 м
[Cu Sc Ac lent Ci sp]
+29.2 +24.8 77 +42 +47 опасность
перегрева
1011.6 1009.7
06 17.06 Ю 4 10 км осадки на расстоянии 8/4 500 м
[Cu Sc Ac lent Ci fib]
+30.8 +24.9 71 +44 +49 опасность
перегрева
1009.4 1007.5 0.0
09 17.06 ЮВ 2 12 км 8/3 500 м
[Cu Sc Ac lent Ci fib]
+29.5 +24.9 76 +42 +43 опасность
перегрева
1008.8 1006.9
12 17.06 СЗ 1 12 км зарница 8/3 480 м
[Cb cap Ac lent Ci fib]
+26.3 +25.3 94 +38 +38 очень
душно
1010.5 1008.6 +31.1
15 17.06 СЗ 2 12 км 8/4 500 м
[Cu Sc Ac lent Ci sp]
+25.6 +24.7 95 +36 +36 очень
душно
1011.8 1009.9
18 17.06 З 1 12 км 9/3 500 м
[Cu Sc Ac As]
+25.3 +24.4 95 +35 +35 очень
душно
1010.6 1008.7
21 17.06 штиль 0 12 км 9/3 500 м
[Cu Sc Ac As]
+25.2 +23.9 93 +35 +35 очень
душно
1010.3 1008.4
00 18.06 З 1 12 км 8/3 50 м
[Cu Sc Ac lent Ci fib]
+27.7 +24.5 83 +39 +42 очень
душно
1011.0 1009.1 +24.4 0.0
03 18.06 Ю 4 12 км 8/3 500 м
[Cu Sc Ac lent Ci fib]
+31.0 +25.8 74 +46 +51 опасность
перегрева
1010.6 1008.7
06 18.06 ЮВ 3 10 км осадки на расстоянии {ливн. осадки} 9/5 500 м
[Cu Sc Ac lent Ci sp]
+29.7 +24.9 75 +42 +46 опасность
перегрева
1009.0 1007.1 0.0
09 18.06 З 1 10 км осадки на расстоянии 8/4 480 м
[Cb cap Ac lent Ci sp]
+29.3 +25.1 78 +42 +43 опасность
перегрева
1007.8 1005.9
12 18.06 С 2 12 км 8/3 500 м
[Cu Sc Ac lent Ci fib]
+25.4 +24.5 95 +36 +36 очень
душно
1009.4 1007.5 +31.4
15 18.06 СЗ 1 2000 м сильн. дождь 9/5 240 м
[Cu Sc Ac As]
+25.5 +25.0 97 +36 +36 очень
душно
1010.6 1008.7
18 18.06 ЮВ 1 8000 м гроза, ливневой дождь 9/5 300 м
[Cb cap Ac As]
+24.4 +24.0 98 +34 +34 очень
душно
1009.3 1007.4 39
21 18.06 штиль 0 12 км в посл. час гроза {дождь} 9/3 300 м
[Cu Sc Ac As]
+24.6 +24.1 97 +34 +34 очень
душно
1009.2 1007.3
00 19.06 штиль 0 12 км 8/3 50 м
[Cu Sc Ac lent Ci fib]
+25.8 +24.8 94 +37 +39 очень
душно
1010.4 1008.5 +24.3 26
03 19.06 Ю 3 14 км 6/4 500 м
[Cu Sc Ac lent Ci fib]
+30.9 +24.4 68 +43 +51 опасность
перегрева
1009.7 1007.8
06 19.06 Ю 4 10 км осадки на расстоянии 9/4 500 м
[Cu Sc Ac lent Ci fib]
+29.9 +25.2 76 +43 +47 опасность
перегрева
1007.7 1005.8
09 19.06 ЮВ 2 12 км 8/3 480 м
[Cb cap Ac lent Ci fib]
+29.5 +25.0 77 +43 +43 опасность
перегрева
1006.9 1005.0
12 19.06 СЗ 1 12 км 8/3 500 м
[Cu Sc Ac lent Ci fib]
+26.6 +25.2 92 +38 +38 очень
душно
1008.7 1006.8 +31.1
15 19.06 СЗ 2 12 км 8/3 500 м
[Cu Sc Ac lent Ci fib]
+25.6 +24.7 95 +36 +36 очень
душно
1009.7 1007.8
18 19.06 С 1 12 км 9/4 500 м
[Cu Sc Ac lent Ci sp]
+25.1 +24.5 96 +35 +35 очень
душно
1008.4 1006.5
21 19.06 З 1 12 км 6/3 500 м
[Cu Sc Ac lent Ci fib]
+24.5 +23.7 95 +33 +33 очень
душно
1008.4 1006.5
00 20.06 ЮЗ 5 10 км осадки на расстоянии 9/5 480 м
[Cb cap Ac As]
+27.4 +24.7 85 +39 +39 очень
душно
1010.2 1008.3 +24.4
03 20.06 З 3 12 км 9/3 300 м
[Frnb Ac As]
+29.8 +25.2 76 +43 +48 опасность
перегрева
1010.1 1008.2
06 20.06 ЮВ 2 12 км 9/3 500 м
[Cu Sc Ac lent Ci fib]
+29.4 +24.8 76 +42 +48 опасность
перегрева
1008.1 1006.2
09 20.06 В 2 14 км 9/3 500 м
[Cu Sc Ac und]
+28.5 +25.2 82 +41 +42 опасность
перегрева
1007.2 1005.3
12 20.06 СЗ 1 12 км 9/3 500 м
[Cu Sc Ac lent Ci sp]
+26.4 +25.2 93 +38 +38 очень
душно
1009.3 1007.4 +29.9
15 20.06 СЗ 1 12 км 8/1 500 м
[Cu Sc Ac lent Ci fib]
+25.5 +24.9 96 +36 +36 очень
душно
1009.7 1007.8
18 20.06 штиль 0 12 км 9/3 500 м
[Cu Sc Ac As]
+25.5 +24.5 94 +36 +36 очень
душно
1009.3 1007.4

 

Местоположение метеостанции Тавау (Малайзия): широта 4.27 долгота 117.88 высота над уровнем моря 20 м.

В архиве по умолчанию представлена погода в Тавау за последнюю неделю. Архивные данные за месяц целиком и за предыдущие месяцы, начиная с января 2011 года, Вы можете получить, выбрав интересующий диапазон дат из раскрывающегося списка и нажав кнопку "Ввод!".


*Определитесь, кто Вы:
робот инопланетянин человек

Внимание! Время в таблицах - всемирное. Для получения местного времени необходимо прибавить поправку, которая равна 8 ч.

Смотрите также архив погоды в соседних городах и на ближайших метеорологических станциях:

Погода в Таракане (Индонезия) (110 км)
Погода в Танджунгселоре (Индонезия) (169 км)
Погода в Сандакане (Малайзия) (182 км)
Погода в Танджунгредепе (Индонезия) (244 км)
Погода в Лонгбаване (Индонезия) (251 км)
Погода в Кота-Кинабалу (Малайзия) (274 км)
Погода в Лабуане (Малайзия) (313 км)
Погода в Бруней аэропорту (Бруней) (335 км)
Погода в Мири (Малайзия) (433 км)
Погода в Толи-Толи (Индонезия) (486 км)

Пояснения к столбцам:

Ветер - указаны скорость ветра в м/с - средняя за 10 мин, порывы в срок и между сроками (в фигурных скобках) и направление, откуда дует ветер: С - северный, СВ - северо-восточный, В - восточный, ЮВ - юго-восточный, Ю - южный, ЮЗ - юго-западный, З - западный, СЗ - северо-западный.
Видимость - горизонтальная дальность видимости в метрах или километрах. При видимости от 1 до 10 км при отсутствии осадков обычно наблюдается дымка, при ухудшении видимости до 1 км и менее - туман. В сухую погоду видимость может ухудшаться дымом, пылью или мглою.
Явления - указаны атмосферные явления, наблюдавшиеся в срок или в последний час перед сроком; фигурными скобками обозначены явления, наблюдавшиеся между сроками (за 1-3 часа до срока); квадратными скобками обозначены град или гололедные отложения с указанием их диаметра в мм.
Облачность - указаны через наклонную черту общая и нижняя облачность в баллах и высота нижней границы облаков в метрах; квадратными скобками обозначены формы облаков: Ci - перистые, Cs - перисто-слоистые, Cc - перисто-кучевые, Ac - высококучевые, As - высокослоистые, Sc - слоисто-кучевые, Ns - слоисто-дождевые, Cu - кучевые, Cb - кучево-дождевые. Подробнее классификацию облаков см. в Атласе облаков (PDF).
T - Температура воздуха - температура, измеренная на высоте 2 м над землей.
Td - Температура точки росы - температура, при понижении до которой содержащийся в воздухе водяной пар достигнет насыщения.
f - Относительная влажность воздуха - влажноcть воздуха, измеренная на высоте 2 м над землей.
Te - Эффективная температура - температура, которую ощущает одетый по сезону человек в тени. Характеристика душности погоды. При расчете учитывается влияние влажности воздуха и скорости ветра на теплоощущения человека.
Tes - Эффективная температура на солнце - температура, которую ощущает человек, с поправкой на солнечный нагрев. Характеристика знойности погоды. Зависит от высоты солнца над горизонтом, облачности и скорости ветра. Ночью, в пасмурную погоду, а также при ветре 12 м/с и более поправка равна нулю.
P - Атмосферное давление - приведенное к уровню моря атмосферное давление.
Po - Атмосферное давление - измеренное на уровне метеостанции атмосферное давление.
Tmin - Минимальная температура - минимум температуры воздуха на высоте 2 м над землей.
Tmax - Максимальная температура - максимум температуры воздуха на высоте 2 м над землей.
R - Количество осадков - Количество выпавших осадков за период времени, мм. При наведении курсора мыши на число - период времени, за который выпало указанное количество осадков.
R24 - Количество осадков - Количество выпавших осадков за 24 часа, мм.
S - Снежный покров - Высота снежного покрова, см. При наведении курсора мыши на число - состояние снежного покрова и степень покрытия местности в баллах.